Date String (YYYY-MM-DD hh:mm:ss) UTC,Instrument flags,absolute air pressure of the measurement (hPa),sample flow rate (lpm),inlet stack bypass flow (lpm),air temperature of the measurement (°C),ambient temperature measured by the external sensor (°C),aerosol sample conditioner tube jacket temperature (°C),OPC LED temperature (°C),internal box temperature (°C),relative humidity of the measurement (%),span deviation,mass concentration of particles derived from Lorenz-Mie calculation of OPC scattering (μg/m³),mass concentration of particles derived from Lorenz-Mie calculation of OPC scattering (μg/m³),mass concentration of particles derived from Lorenz-Mie calculation of OPC scattering (μg/m³)
DateTimeUTC,F1_M11,P_M11,Q1_M11,Q2_M11,T1_M11,T2_M11,T3_M11,T4_M11,T5_M11,U1_M11,ZSPAN_M11,X0_M11,X2_M11,X1_M11
2024-01-19 09:00:00,SystemResetWarning,0836.4,5.00,000.00,018.9,017.7,000.0,027.3,020.0,9.0,0000.0,0008.86,0004.73,0004.08
2024-01-19 09:01:00,SystemResetWarning,0836.3,5.00,000.00,018.8,017.6,000.0,027.3,020.0,9.0,0000.0,0008.98,0004.72,0004.07
2024-01-19 09:02:00,SystemResetWarning,0836.3,5.00,000.00,018.8,017.5,000.0,027.3,020.1,9.0,0000.0,0008.99,0004.73,0004.08
2024-01-19 09:03:00,SystemResetWarning,0836.4,5.01,000.00,018.9,018.1,000.0,027.3,020.5,8.9,0000.0,0009.37,0004.72,0004.09
2024-01-19 09:04:00,SystemResetWarning,0836.5,5.01,000.00,019.0,018.9,000.0,027.2,020.9,8.9,0000.0,0009.59,0004.70,0004.09
2024-01-19 09:05:00,SystemResetWarning,0836.4,4.98,000.00,019.1,019.1,000.0,027.2,020.5,8.9,0000.0,0009.32,0004.72,0004.09
2024-01-19 09:06:00,SystemResetWarning,0836.4,5.00,000.00,019.0,018.8,000.0,027.2,020.0,8.9,0000.0,0009.20,0004.72,0004.09
2024-01-19 09:07:00,SystemResetWarning,0836.3,5.00,000.00,019.0,018.5,000.0,027.3,020.0,9.0,0000.0,0009.54,0004.74,0004.11
2024-01-19 09:08:00,SystemResetWarning,0836.2,5.00,000.00,018.9,018.2,000.0,027.3,020.0,9.0,0000.0,0009.75,0004.75,0004.11
2024-01-19 09:09:00,SystemResetWarning,0836.2,5.00,000.00,018.9,018.0,000.0,027.3,020.0,9.0,0000.0,0009.74,0004.76,0004.12
2024-01-19 09:10:00,SystemResetWarning,0836.2,5.00,000.00,018.9,017.8,000.0,027.3,020.0,9.0,0000.0,0009.73,0004.77,0004.12
2024-01-19 09:11:00,SystemResetWarning,0836.2,5.00,000.00,018.9,017.6,000.0,027.3,020.0,9.1,0000.0,0009.66,0004.78,0004.12
2024-01-19 09:12:00,SystemResetWarning,0836.2,5.00,000.00,018.8,017.5,000.0,027.3,020.0,9.0,0000.0,0010.02,0004.81,0004.12
2024-01-19 09:13:00,SystemResetWarning,0836.2,5.01,000.00,018.8,017.5,000.0,027.3,020.2,9.0,0000.0,0011.41,0004.83,0004.12
2024-01-19 09:14:00,SystemResetWarning,0836.2,5.01,000.00,018.9,018.2,000.0,027.3,020.6,9.0,0000.0,0011.63,0004.84,0004.13
2024-01-19 09:15:00,SystemResetWarning,0836.1,4.99,000.00,019.1,018.9,000.0,027.2,020.7,8.9,0000.0,0011.40,0004.87,0004.14
2024-01-19 09:16:00,SystemResetWarning,0836.1,5.00,000.00,019.0,018.7,000.0,027.2,020.2,9.0,0000.0,0011.46,0004.90,0004.16
2024-01-19 09:17:00,SystemResetWarning,0836.1,4.99,000.00,019.0,018.4,000.0,027.3,020.0,9.0,0000.0,0011.44,0004.91,0004.17
2024-01-19 09:18:00,SystemResetWarning,0836.1,5.00,000.00,018.9,018.1,000.0,027.3,020.0,9.1,0000.0,0011.08,0004.92,0004.18
2024-01-19 09:19:00,SystemResetWarning,0836.1,5.00,000.00,018.9,017.8,000.0,027.3,020.0,9.1,0000.0,0011.00,0004.94,0004.19
2024-01-19 09:20:00,SystemResetWarning,0836.0,5.00,000.00,018.9,017.6,000.0,027.3,020.0,9.1,0000.0,0010.99,0004.94,0004.20
2024-01-19 09:21:00,SystemResetWarning,0835.9,5.01,000.00,018.9,017.6,000.0,027.3,020.2,9.1,0000.0,0010.98,0004.93,0004.22
2024-01-19 09:22:00,SystemResetWarning,0836.0,5.01,000.00,019.0,018.3,000.0,027.2,020.7,9.1,0000.0,0011.50,0004.92,0004.24
2024-01-19 09:23:00,SystemResetWarning,0836.1,4.99,000.00,019.1,019.0,000.0,027.2,020.8,9.0,0000.0,0011.23,0004.88,0004.25
2024-01-19 09:24:00,SystemResetWarning,0836.0,4.98,000.00,019.0,018.8,000.0,027.2,020.2,9.1,0000.0,0009.86,0004.86,0004.26
2024-01-19 09:25:00,SystemResetWarning,0835.9,5.02,000.00,019.0,018.5,000.0,027.2,020.0,9.1,0000.0,0009.34,0004.86,0004.27
2024-01-19 09:26:00,SystemResetWarning,0835.9,5.01,000.00,018.9,018.1,000.0,027.3,020.0,9.1,0000.0,0009.56,0004.84,0004.28
2024-01-19 09:27:00,SystemResetWarning,0835.9,4.99,000.00,018.9,017.9,000.0,027.3,020.0,9.2,0000.0,0010.16,0004.83,0004.28
2024-01-19 09:28:00,SystemResetWarning,0835.9,4.99,000.00,018.9,017.7,000.0,027.3,020.0,9.2,0000.0,0010.42,0004.84,0004.29
2024-01-19 09:29:00,SystemResetWarning,0835.9,5.01,000.00,018.9,017.5,000.0,027.3,020.0,9.3,0000.0,0010.61,0004.85,0004.30
2024-01-19 09:30:00,SystemResetWarning,0835.9,5.02,000.00,018.9,017.8,000.0,027.3,020.4,9.3,0000.0,0010.57,0004.86,0004.31
2024-01-19 09:31:00,SystemResetWarning,0835.9,5.00,000.00,019.0,018.6,000.0,027.2,020.8,9.3,0000.0,0010.59,0004.90,0004.32
2024-01-19 09:32:00,SystemResetWarning,0835.9,4.99,000.00,019.1,018.8,000.0,027.2,020.4,9.2,0000.0,0010.84,0004.92,0004.33
2024-01-19 09:33:00,SystemResetWarning,0836.0,5.00,000.00,019.0,018.5,000.0,027.2,020.0,9.3,0000.0,0010.74,0004.97,0004.35
2024-01-19 09:34:00,SystemResetWarning,0836.0,5.00,000.00,018.9,018.2,000.0,027.3,020.0,9.4,0000.0,0010.60,0005.00,0004.37
2024-01-19 09:35:00,SystemResetWarning,0836.1,5.00,000.00,018.9,017.9,000.0,027.3,020.0,9.4,0000.0,0010.74,0005.01,0004.38
2024-01-19 09:36:00,SystemResetWarning,0836.1,5.00,000.00,018.9,017.7,000.0,027.3,020.0,9.4,0000.0,0010.53,0005.02,0004.40
2024-01-19 09:37:00,SystemResetWarning,0836.0,5.00,000.00,018.9,017.7,000.0,027.3,020.2,9.4,0000.0,0010.50,0005.07,0004.42
2024-01-19 09:38:00,SystemResetWarning,0836.0,5.01,000.00,019.0,018.3,000.0,027.2,020.6,9.4,0000.0,0010.02,0005.10,0004.44
2024-01-19 09:39:00,SystemResetWarning,0835.9,5.00,000.00,019.1,019.0,000.0,027.2,020.7,9.3,0000.0,0009.82,0005.12,0004.47
2024-01-19 09:40:00,SystemResetWarning,0835.9,4.98,000.00,019.0,018.8,000.0,027.2,020.1,9.3,0000.0,0009.73,0005.14,0004.49
2024-01-19 09:41:00,SystemResetWarning,0836.0,5.01,000.00,019.0,018.5,000.0,027.2,020.0,9.4,0000.0,0009.74,0005.14,0004.50
2024-01-19 09:42:00,SystemResetWarning,0836.1,5.01,000.00,018.9,018.2,000.0,027.3,020.0,9.4,0000.0,0009.66,0005.11,0004.51
2024-01-19 09:43:00,SystemResetWarning,0836.1,4.99,000.00,018.9,018.0,000.0,027.3,020.0,9.4,0000.0,0010.00,0005.12,0004.53
2024-01-19 09:44:00,SystemResetWarning,0836.1,4.99,000.00,018.9,017.7,000.0,027.3,020.0,9.5,0000.0,0010.03,0005.14,0004.55
2024-01-19 09:45:00,SystemResetWarning,0836.1,5.00,000.00,018.9,017.6,000.0,027.3,020.0,9.6,0000.0,0010.67,0005.22,0004.57
2024-01-19 09:46:00,SystemResetWarning,0836.1,5.02,000.00,018.9,018.0,000.0,027.3,020.4,9.6,0000.0,0011.27,0005.28,0004.61
2024-01-19 09:47:00,SystemResetWarning,0836.1,4.99,000.00,019.0,018.8,000.0,027.2,020.8,9.5,0000.0,0011.52,0005.31,0004.64
2024-01-19 09:48:00,SystemResetWarning,0836.1,4.99,000.00,019.1,019.1,000.0,027.2,020.5,9.5,0000.0,0011.37,0005.32,0004.67
2024-01-19 09:49:00,SystemResetWarning,0835.9,4.98,000.00,019.0,018.8,000.0,027.2,020.1,9.5,0000.0,0011.03,0005.30,0004.70
2024-01-19 09:50:00,SystemResetWarning,0836.0,5.01,000.00,019.0,018.5,000.0,027.3,020.0,9.6,0000.0,0011.28,0005.32,0004.72
2024-01-19 09:51:00,SystemResetWarning,0836.0,5.01,000.00,018.9,018.2,000.0,027.3,020.0,9.6,0000.0,0011.36,0005.31,0004.74
2024-01-19 09:52:00,SystemResetWarning,0836.0,4.99,000.00,018.9,017.9,000.0,027.3,020.0,9.6,0000.0,0011.82,0005.36,0004.78
2024-01-19 09:53:00,SystemResetWarning,0836.1,4.99,000.00,018.9,017.7,000.0,027.3,020.0,9.6,0000.0,0012.02,0005.43,0004.82
2024-01-19 09:54:00,SystemResetWarning,0836.1,4.99,000.00,018.9,017.5,000.0,027.3,020.0,9.6,0000.0,0011.83,0005.48,0004.86
2024-01-19 09:55:00,SystemResetWarning,0836.0,5.01,000.00,018.8,017.5,000.0,027.3,020.1,9.6,0000.0,0011.51,0005.50,0004.90
2024-01-19 09:56:00,SystemResetWarning,0836.1,5.02,000.00,018.9,018.1,000.0,027.3,020.5,9.6,0000.0,0011.00,0005.52,0004.93
2024-01-19 09:57:00,SystemResetWarning,0836.1,4.98,000.00,019.0,018.9,000.0,027.2,020.8,9.5,0000.0,0010.51,0005.52,0004.96
2024-01-19 09:58:00,SystemResetWarning,0836.0,4.99,000.00,019.0,018.8,000.0,027.2,020.2,9.5,0000.0,0010.16,0005.57,0004.99
2024-01-19 09:59:00,SystemResetWarning,0836.0,5.00,000.00,019.0,018.5,000.0,027.2,020.0,9.5,0000.0,0010.25,0005.60,0005.01
